Weather History for Oxford, CT

Change the Weather History Date:

Friday, February 22, 2013

  Actual Average Record
Temperature  
Mean Temperature 27 °F -  
Max Temperature 35 °F 37 °F 66 °F (1997)
Min Temperature 19 °F 22 °F 8 °F (2001)
Degree Days  
Heating Degree Days 38    
Moisture  
Dew Point 16 °F    
Average Humidity 65    
Maximum Humidity 75    
Minimum Humidity 52    
Precipitation  
Precipitation 0.00 in - - ()
Sea Level Pressure  
Sea Level Pressure 30.30 in    
Wind  
Wind Speed 9 mph (ENE)    
Max Wind Speed 14 mph    
Max Gust Speed -    
Visibility 10 miles    
Events      
Averages and records for this station are not official NWS values.
T = Trace of Precipitation, MM = Missing Value Source: NWS Daily Summary

Daily Weather History Graph

Daily Weather History Graph

Search for Another Location

Airport:

Trip Planner

Search our weather history database for the weather conditions in past years. The results will help you decide how hot, cold, wet, or windy it might be!

Date:

Astronomy

Feb. 22, 2013 Rise Set
Actual Time 6:37 AM EST 5:35 PM EST
Civil Twilight 6:09 AM EST 6:03 PM EST
Nautical Twilight 5:37 AM EST 6:35 PM EST
Astronomical Twilight 5:05 AM EST 7:07 PM EST
Moon 2:42 PM EST (2/22) 4:22 AM EST (2/22)
Length of Visible Light 11h 53m
Length of Day
10h 57m
Waxing Gibbous, 90% of the Moon is Illuminated
Feb 22
Waxing Gibbous
Feb 25
Full
Mar 4
Last Quarter
Mar 11
New
Mar 19
First Quarter

Hourly Weather History & Observations

Time (EST) Temp. Windchill Dew Point Humidity Pressure Visibility Wind Dir Wind Speed Gust Speed Precip Events Conditions
12:15 AM 19.4 °F 7.2 °F 8.6 °F 63% 30.27 in 10.0 mi NNW 11.5 mph - N/A   Clear
12:35 AM 19.4 °F 6.6 °F 8.6 °F 63% 30.27 in 10.0 mi NNW 12.7 mph - N/A   Clear
12:55 AM 19.4 °F 6.6 °F 8.6 °F 63% 30.26 in 10.0 mi North 12.7 mph - N/A   Clear
1:15 AM 19.4 °F 6.0 °F 8.6 °F 63% 30.25 in 10.0 mi North 13.8 mph - N/A   Clear
1:55 AM 19.4 °F 7.2 °F 10.4 °F 68% 30.25 in 10.0 mi North 11.5 mph - N/A   Clear
2:15 AM 19.4 °F 7.2 °F 10.4 °F 68% 30.25 in 10.0 mi North 11.5 mph - N/A   Clear
2:55 AM 19.4 °F 8.6 °F 10.4 °F 68% 30.25 in 10.0 mi North 9.2 mph - N/A   Clear
3:15 AM 19.4 °F 7.9 °F 8.6 °F 63% 30.24 in 10.0 mi NNE 10.4 mph - N/A   Clear
3:55 AM 21.2 °F 11.7 °F 10.4 °F 63% 30.27 in 10.0 mi North 8.1 mph - N/A   Clear
4:15 AM 19.4 °F 11.5 °F 10.4 °F 68% 30.30 in 10.0 mi NNW 5.8 mph - N/A   Clear
4:35 AM 19.4 °F 8.6 °F 10.4 °F 68% 30.31 in 10.0 mi NNW 9.2 mph - N/A   Clear
5:15 AM 19.4 °F 8.6 °F 8.6 °F 63% 30.31 in 10.0 mi North 9.2 mph - N/A   Clear
5:35 AM 19.4 °F 8.6 °F 10.4 °F 68% 30.30 in 10.0 mi North 9.2 mph - N/A   Clear
5:45 AM 19.4 °F 9.5 °F 10.4 °F 68% 30.31 in 10.0 mi North 8.1 mph - N/A   Clear
6:45 AM 19.4 °F - 10.4 °F 68% 30.34 in 10.0 mi Calm Calm - N/A   Clear
7:45 AM 19.4 °F 9.5 °F 10.4 °F 68% 30.37 in 10.0 mi North 8.1 mph - N/A   Clear
8:45 AM 24.8 °F 17.9 °F 12.2 °F 59% 30.37 in 10.0 mi North 5.8 mph - N/A   Clear
9:45 AM 26.6 °F 19.1 °F 15.8 °F 64% 30.37 in 10.0 mi NE 6.9 mph - N/A   Clear
10:45 AM 32.0 °F 27.5 °F 17.6 °F 55% 30.35 in 10.0 mi SE 4.6 mph - N/A   Clear
11:45 AM 33.8 °F 28.6 °F 19.4 °F 56% 30.36 in 10.0 mi SSE 5.8 mph - N/A   Clear
12:45 PM 33.8 °F 28.6 °F 17.6 °F 52% 30.34 in 10.0 mi South 5.8 mph - N/A   Clear
2:45 PM 35.6 °F 30.7 °F 19.4 °F 52% 30.30 in 10.0 mi South 5.8 mph - N/A   Clear
3:45 PM 33.8 °F 26.4 °F 19.4 °F 56% 30.30 in 10.0 mi South 9.2 mph - N/A   Clear
4:45 PM 33.8 °F 28.6 °F 21.2 °F 60% 30.30 in 10.0 mi South 5.8 mph - N/A   Clear
5:45 PM 33.8 °F 28.6 °F 21.2 °F 60% 30.32 in 10.0 mi South 5.8 mph - N/A   Clear
6:45 PM 32.0 °F 26.4 °F 21.2 °F 64% 30.31 in 10.0 mi South 5.8 mph - N/A   Overcast
9:35 PM 32.0 °F 27.5 °F 23.0 °F 69% 30.31 in 10.0 mi SSE 4.6 mph - N/A   Overcast
9:55 PM 32.0 °F 26.4 °F 24.8 °F 75% 30.31 in 10.0 mi SE 5.8 mph - N/A   Overcast
10:15 PM 32.0 °F 27.5 °F 24.8 °F 75% 30.29 in 10.0 mi SE 4.6 mph - N/A   Overcast
10:35 PM 32.0 °F 28.7 °F 24.8 °F 75% 30.29 in 10.0 mi SE 3.5 mph - N/A   Overcast
10:55 PM 32.0 °F 27.5 °F 23.0 °F 69% 30.29 in 10.0 mi SE 4.6 mph - N/A   Overcast
11:15 PM 32.0 °F 26.4 °F 23.0 °F 69% 30.28 in 10.0 mi SE 5.8 mph - N/A   Overcast
11:35 PM 32.0 °F 26.4 °F 23.0 °F 69% 30.28 in 10.0 mi SE 5.8 mph - N/A   Overcast
11:55 PM 32.0 °F 27.5 °F 24.8 °F 75% 30.28 in 10.0 mi SSE 4.6 mph - N/A   Overcast